Simultaneous Nadir Overpasses (SNOs) Predictions

Prediction of SNOs between GOES-16 and NOAA-20 Satellite Orbit:

Table of predicted SNOs for the next 14.0 days since TLE Epoch: 5/30/2025
Index Date Time (GOES-16) GOES-16 Lat,Lon NOAA-20 Lat,Lon Distance(km) Time Diff (sec)
1 06/01/2025 08:18:58 -0.00,-102.03 0.33,-103.41 157.88 80
2 06/02/2025 07:57:37 -0.01,-102.55 -0.84, -98.91 415.04 80
3 06/03/2025 20:22:16 0.00,-103.38 -0.19,-104.25 99.54 80
4 06/04/2025 20:00:54 0.01,-103.90 0.92, -99.74 473.80 80
5 06/06/2025 08:25:25 -0.00,-104.69 0.11,-105.05 41.22 80
6 06/08/2025 20:26:03 0.01,-106.04 0.04,-105.89 17.02 80
7 06/10/2025 08:50:34 -0.01,-106.83 0.98,-111.19 497.95 80
8 06/11/2025 08:29:12 -0.01,-107.35 -0.14,-106.69 74.87 80
9 06/12/2025 20:53:51 0.01,-108.16 -0.88,-112.03 440.78 80
